Bryce, UT

5:12 PM MDT on July 29, 2016 (GMT -0600)
Bryce Canyon

Weather History for KBCE - August, 2014

Change the Weather History Date:

Tuesday, August 19, 2014

  Actual Average Record
Temperature  
Mean Temperature 53 °F -  
Max Temperature 61 °F 74 °F 86 °F (1960)
Min Temperature 46 °F 44 °F 34 °F (1968)
Degree Days  
Heating Degree Days 12    
Growing Degree Days 3 (Base 50)    
Moisture  
Dew Point 50 °F    
Average Humidity 90    
Maximum Humidity 100    
Minimum Humidity 67    
Precipitation  
Precipitation 0.46 in - - ()
Sea Level Pressure  
Sea Level Pressure 29.99 in    
Wind  
Wind Speed 4 mph (West)    
Max Wind Speed 13 mph    
Max Gust Speed 18 mph    
Visibility 7 miles    
Events Fog , Rain    
Averages and records for this station are not official NWS values.
T = Trace of Precipitation, MM = Missing Value Source: NWS Daily Summary

Daily Weather History Graph

Daily Weather History Graph

Search for Another Location

Airport or City:

Trip Planner

Search our weather history database for the weather conditions in past years. The results will help you decide how hot, cold, wet, or windy it might be!

Date:

Astronomy

Aug. 19, 2014 Rise Set
Actual Time 6:47 AM MDT 8:15 PM MDT
Civil Twilight 6:20 AM MDT 8:43 PM MDT
Nautical Twilight 5:46 AM MDT 9:16 PM MDT
Astronomical Twilight 5:11 AM MDT 9:51 PM MDT
Moon 1:44 AM MDT (8/19) 4:13 PM MDT (8/19)
Length of Visible Light 14h 23m
Length of Day
13h 28m
Waning Crescent, 28% of the Moon is Illuminated
Aug 19
Waning Crescent
Aug 25
New
Sep 2
First Quarter
Sep 8
Full
Sep 15
Last Quarter

Hourly Weather History & Observations

Time (MDT) Temp. Dew Point Humidity Pressure Visibility Wind Dir Wind Speed Gust Speed Precip Events Conditions
12:53 AM 54.0 °F 50.0 °F 86% 29.87 in 10.0 mi West 4.6 mph - N/A   Partly Cloudy
1:53 AM 51.1 °F 50.0 °F 96% 29.87 in 10.0 mi NW 3.5 mph - N/A   Overcast
3:53 AM 48.9 °F 46.9 °F 93% 29.89 in 10.0 mi West 4.6 mph - N/A   Clear
4:53 AM 48.9 °F 46.9 °F 93% 29.91 in 10.0 mi WSW 4.6 mph - N/A   Clear
6:53 AM 46.9 °F 45.0 °F 93% 29.91 in 10.0 mi WNW 3.5 mph - N/A   Clear
7:53 AM 50.0 °F 46.9 °F 89% 29.91 in 10.0 mi Calm Calm - N/A   Overcast
8:53 AM 51.1 °F 48.9 °F 92% 29.91 in 10.0 mi West 3.5 mph - 0.00 in Rain Light Rain
9:53 AM 54.0 °F 50.0 °F 86% 29.90 in 10.0 mi WNW 4.6 mph - 0.00 in   Overcast
10:53 AM 55.0 °F 51.1 °F 86% 29.90 in 9.0 mi WNW 5.8 mph - 0.02 in Rain Light Rain
11:03 AM 54.0 °F 51.1 °F 90% 30.21 in 1.8 mi West 4.6 mph - 0.05 in Rain Heavy Rain
11:22 AM 53.1 °F 51.1 °F 93% 30.21 in 3.0 mi WNW 6.9 mph - 0.12 in Rain Rain
11:53 AM 55.0 °F 52.0 °F 89% 29.91 in 10.0 mi NW 8.1 mph - 0.14 in Rain Light Rain
12:07 PM 55.0 °F 52.0 °F 89% 30.20 in 8.0 mi NW 6.9 mph - 0.01 in Rain Light Rain
12:42 PM 54.0 °F 50.0 °F 86% 30.19 in 7.0 mi NW 12.7 mph 18.4 mph 0.02 in Rain Light Rain
12:53 PM 54.0 °F 50.0 °F 86% 29.91 in 6.0 mi WNW 9.2 mph - 0.04 in Rain Light Rain
1:53 PM 52.0 °F 50.0 °F 93% 29.95 in 3.0 mi SSW 4.6 mph - 0.12 in Rain Rain
2:53 PM 53.1 °F 50.0 °F 89% 29.90 in 10.0 mi North 5.8 mph - 0.14 in Rain Light Rain
3:53 PM 59.0 °F 52.0 °F 78% 29.84 in 10.0 mi NE 6.9 mph - 0.00 in   Clear
4:53 PM 60.1 °F 50.0 °F 69% 29.82 in 10.0 mi Calm Calm - N/A   Mostly Cloudy
5:01 PM 60.1 °F 48.9 °F 67% 30.11 in 10.0 mi Calm Calm - N/A   Mostly Cloudy
5:53 PM 60.1 °F 48.9 °F 67% 29.82 in 10.0 mi SW 3.5 mph - N/A   Scattered Clouds
6:53 PM 57.0 °F 52.0 °F 83% 29.83 in 10.0 mi SE 8.1 mph - N/A   Clear
7:45 PM 55.9 °F 53.1 °F 90% 30.11 in 10.0 mi SE 8.1 mph - N/A   Scattered Clouds
7:53 PM 55.9 °F 53.1 °F 90% 29.83 in 10.0 mi SE 5.8 mph - N/A   Scattered Clouds
8:53 PM 54.0 °F 52.0 °F 93% 29.84 in 10.0 mi SE 6.9 mph - N/A   Clear
9:53 PM 51.1 °F 50.0 °F 96% 29.86 in 10.0 mi Calm Calm - N/A   Clear
10:11 PM 50.0 °F 48.9 °F 96% 30.15 in 1.5 mi Calm Calm - N/A   Partly Cloudy
10:13 PM 50.0 °F 48.9 °F 96% 30.15 in 0.8 mi Calm Calm - N/A   Mist
10:32 PM 50.0 °F 48.9 °F 96% 30.15 in 1.0 mi Calm Calm - N/A   Mist
10:35 PM 48.9 °F 48.9 °F 100% 30.15 in 3.0 mi Calm Calm - N/A   Mostly Cloudy
10:39 PM 50.0 °F 48.9 °F 96% 30.15 in 1.8 mi Calm Calm - N/A   Mostly Cloudy
10:48 PM 50.0 °F 48.2 °F 94% 30.15 in 0.5 mi West 3.5 mph - N/A Fog Fog
10:53 PM 50.0 °F 50.0 °F 100% 29.88 in 1.0 mi West 3.5 mph - N/A   Overcast
11:09 PM 48.9 °F 48.0 °F 97% 30.16 in 0.5 mi WNW 6.9 mph - N/A Fog Fog
11:23 PM 48.9 °F 48.9 °F 100% 30.16 in 0.2 mi West 5.8 mph - N/A Fog Fog
11:53 PM 48.9 °F 48.9 °F 100% 29.89 in 0.2 mi Calm Calm - N/A Fog Fog